DW7126 Weather Reports


time (UTC)temp
C
wind
direction
speed
KPH
gust
KPH
rain 1hr
cm
rain 24hr
cm
rain mn
cm
humidity
%
barometer
mb
20180221225530 7 155 0.0 1.6 0.00 0.00 0.00 91 1010.6
20180221225026 8 155 0.0 3.2 0.00 0.00 0.00 91 1010.6
20180221224533 8 155 1.6 4.8 0.00 0.00 0.00 91 1010.5
20180221224138 7 155 1.6 4.8 0.00 0.00 0.00 91 1010.5
20180221224026 8 155 1.6 4.8 0.00 0.00 0.00 91 1010.5
20180221223536 8 155 3.2 6.4 0.00 0.00 0.00 90 1010.5
20180221223045 8 153 3.2 6.4 0.00 0.00 0.00 91 1010.5
20180221222540 8 173 1.6 6.4 0.00 0.00 0.00 90 1010.5
20180221222304 7 192 1.6 6.4 0.00 0.00 0.00 89 1010.5
20180221222025 8 192 4.8 6.4 0.00 0.00 0.00 89 1010.5
20180221221529 8 119 4.8 6.4 0.00 0.00 0.00 89 1010.5
20180221221018 8 168 1.6 4.8 0.00 0.00 0.00 88 1010.5
20180221220526 10 69 0.0 4.8 0.00 0.00 0.00 88 1010.5
20180221220446 9 69 0.0 4.8 0.00 0.00 0.00 88 1010.5
20180221220032 10 69 3.2 4.8 0.00 0.00 0.00 88 1010.4
20180221215523 10 69 3.2 8.0 0.00 0.00 0.00 88 1010.4
20180221215027 10 76 6.4 8.0 0.00 0.00 0.00 88 1010.4
20180221214606 10 82 4.8 8.0 0.00 0.00 0.00 87 1010.4
20180221214534 10 81 4.8 8.0 0.00 0.00 0.00 87 1010.4
20180221214021 10 63 3.2 4.8 0.00 0.00 0.00 87 1010.4
20180221213529 10 63 0.0 4.8 0.00 0.00 0.00 87 1010.4
20180221213026 10 63 0.0 8.0 0.00 0.00 0.00 87 1010.4
20180221212748 10 63 1.6 8.0 0.00 0.00 0.00 87 1010.4
20180221212525 10 49 4.8 8.0 0.00 0.00 0.00 87 1010.4
20180221212029 10 52 4.8 9.7 0.00 0.00 0.00 87 1010.4
20180221211527 10 53 9.7 11.3 0.00 0.00 0.00 87 1010.5
20180221211027 10 92 8.0 11.3 0.00 0.00 0.00 87 1010.5
20180221210920 10 98 8.0 11.3 0.00 0.00 0.00 86 1010.6
20180221210530 10 120 3.2 6.4 0.00 0.00 0.00 86 1010.5
20180221210033 10 118 3.2 6.4 0.00 0.00 0.00 86 1010.5
20180221205519 10 28 0.0 8.0 0.00 0.00 0.00 86 1010.5
20180221205120 10 28 3.2 16.1 0.00 0.00 0.00 86 1010.5
20180221205032 10 42 4.8 16.1 0.00 0.00 0.00 86 1010.5
20180221204532 10 25 6.4 16.1 0.00 0.00 0.00 86 1010.4
20180221204026 10 26 3.2 11.3 0.00 0.00 0.00 86 1010.5
20180221203545 10 79 3.2 11.3 0.00 0.00 0.00 86 1010.5
20180221203300 10 32 6.4 11.3 0.00 0.00 0.00 87 1010.5
20180221203038 10 28 3.2 11.3 0.00 0.00 0.00 87 1010.5
20180221202547 10 28 1.6 16.1 0.00 0.00 0.00 86 1010.4
20180221202022 10 5 11.3 16.1 0.00 0.00 0.00 86 1010.3
20180221201556 10 50 6.4 9.7 0.00 0.00 0.00 85 1010.4
20180221201406 10 17 4.8 9.7 0.00 0.00 0.00 85 1010.4
20180221201041 10 32 3.2 9.7 0.00 0.00 0.00 85 1010.4
20180221200523 10 65 3.2 9.7 0.00 0.00 0.00 85 1010.4
20180221200050 10 53 3.2 6.4 0.00 0.00 0.00 84 1010.4
20180221195551 10 46 1.6 8.0 0.00 0.00 0.00 84 1010.4
20180221195520 11 46 3.2 8.0 0.00 0.00 0.00 84 1010.4
20180221195038 11 24 3.2 12.9 0.00 0.00 0.00 84 1010.4
20180221194530 11 49 8.0 12.9 0.00 0.00 0.00 84 1010.3
20180221194035 11 46 4.8 12.9 0.00 0.00 0.00 83 1010.4
20180221193717 11 48 3.2 12.9 0.00 0.00 0.00 83 1010.3
20180221193539 11 48 6.4 12.9 0.00 0.00 0.00 84 1010.3
20180221193021 11 113 6.4 12.9 0.00 0.00 0.00 84 1010.4
20180221192535 11 86 1.6 8.0 0.00 0.00 0.00 84 1010.4
20180221192040 11 61 3.2 8.0 0.00 0.00 0.00 84 1010.3
20180221191906 11 42 3.2 8.0 0.00 0.00 0.00 84 1010.4
20180221191548 11 33 1.6 8.0 0.00 0.00 0.00 84 1010.3
20180221191047 11 55 4.8 8.0 0.00 0.00 0.00 84 1010.3
20180221190544 11 46 4.8 9.7 0.00 0.00 0.00 83 1010.2
20180221190051 11 65 4.8 14.5 0.00 0.00 0.00 83 1010.2
20180221190020 11 26 4.8 14.5 0.00 0.00 0.00 83 1010.2
20180221185525 11 52 6.4 14.5 0.00 0.00 0.00 83 1010.1
20180221185040 11 54 8.0 14.5 0.00 0.00 0.00 83 1010.1
20180221184536 11 24 4.8 14.5 0.00 0.00 0.00 82 1010.2
20180221184221 11 28 6.4 14.5 0.00 0.00 0.00 82 1010.2
20180221184023 11 66 6.4 12.9 0.00 0.00 0.00 82 1010.2
20180221183524 11 49 8.0 12.9 0.00 0.00 0.00 81 1010.2
20180221183029 11 25 6.4 14.5 0.00 0.00 0.00 81 1010.2
20180221182536 11 35 8.0 14.5 0.00 0.00 0.00 80 1010.1
20180221182344 11 53 6.4 16.1 0.00 0.00 0.00 80 1010.2
20180221182034 12 74 8.0 16.1 0.00 0.00 0.00 79 1010.2
20180221181541 12 47 9.7 14.5 0.00 0.00 0.00 79 1010.1
20180221181030 12 23 4.8 14.5 0.00 0.00 0.00 78 1010.1
20180221180542 12 11 8.0 16.1 0.00 0.00 0.00 78 1010.1
20180221180455 12 23 6.4 16.1 0.00 0.00 0.00 78 1010.1
20180221180028 12 24 11.3 16.1 0.00 0.00 0.00 76 1010.1
20180221175524 13 27 8.0 16.1 0.00 0.00 0.00 76 1010.1
20180221175032 13 54 8.0 12.9 0.00 0.00 0.00 77 1010.0
20180221174628 13 30 6.4 11.3 0.00 0.00 0.00 77 1010.1
20180221174544 13 18 6.4 11.3 0.00 0.00 0.00 77 1010.0
20180221174026 13 15 8.0 11.3 0.00 0.00 0.00 78 1010.1
20180221173538 13 19 6.4 14.5 0.00 0.00 0.00 78 1010.1
20180221173034 13 5 8.0 14.5 0.00 0.00 0.00 77 1010.0
20180221172752 13 19 8.0 14.5 0.00 0.00 0.00 77 1010.1
20180221172526 14 13 8.0 14.5 0.00 0.00 0.00 76 1010.0
20180221172023 14 5 6.4 11.3 0.00 0.00 0.00 76 1010.1
20180221171532 14 10 6.4 14.5 0.00 0.00 0.00 76 1010.0
20180221171052 13 28 4.8 20.9 0.00 0.00 0.00 77 1010.0
20180221170909 13 19 8.0 20.9 0.00 0.00 0.00 76 1010.0
20180221170544 13 350 11.3 20.9 0.00 0.00 0.00 75 1010.0
20180221170029 13 343 12.9 20.9 0.00 0.00 0.00 75 1009.9
20180221165538 14 34 14.5 19.3 0.00 0.00 0.00 75 1009.9
20180221165105 13 325 9.7 17.7 0.00 0.00 0.00 76 1009.9
20180221165036 14 19 9.7 17.7 0.00 0.00 0.00 75 1010.0
20180221164527 14 28 9.7 19.3 0.00 0.00 0.00 76 1009.8
20180221164033 14 346 12.9 19.3 0.00 0.00 0.00 74 1009.8
20180221163528 14 346 11.3 20.9 0.00 0.00 0.00 75 1009.8
20180221163238 13 340 9.7 20.9 0.00 0.00 0.00 75 1009.8
20180221163032 14 338 11.3 20.9 0.00 0.00 0.00 75 1009.8
20180221162523 14 5 11.3 20.9 0.00 0.00 0.00 76 1009.8
20180221162030 14 9 14.5 22.5 0.00 0.00 0.00 75 1009.7
20180221161530 15 348 14.5 22.5 0.00 0.00 0.00 74 1009.8
20180221161352 15 42 11.3 19.3 0.00 0.00 0.00 76 1009.7
20180221161025 15 343 9.7 19.3 0.00 0.00 0.00 75 1009.7
20180221160549 15 24 14.5 20.9 0.00 0.00 0.00 74 1009.7
20180221160028 14 46 12.9 22.5 0.00 0.00 0.00 73 1009.7
20180221155611 14 5 8.0 24.1 0.00 0.00 0.00 72 1009.8
20180221155526 14 22 11.3 24.1 0.00 0.00 0.00 72 1009.8
20180221155028 15 23 11.3 19.3 0.00 0.00 0.00 71 1009.9
20180221154524 15 22 11.3 20.9 0.00 0.00 0.00 76 1009.9
20180221154035 14 339 12.9 24.1 0.00 0.00 0.00 76 1009.9
20180221153729 14 342 12.9 24.1 0.00 0.00 0.00 76 1010.0
20180221153530 14 339 17.7 24.1 0.00 0.00 0.00 75 1010.0
20180221153030 15 345 12.9 22.5 0.00 0.00 0.00 74 1010.1
20180221152528 15 313 12.9 22.5 0.00 0.00 0.00 74 1010.0
20180221152033 15 327 12.9 22.5 0.00 0.00 0.00 73 1010.1
20180221151842 14 346 14.5 22.5 0.00 0.00 0.00 70 1010.1
20180221151524 15 337 16.1 20.9 0.00 0.00 0.00 70 1010.1
20180221151031 15 5 11.3 24.1 0.00 0.00 0.00 73 1010.2
20180221150523 14 344 14.5 24.1 0.00 0.00 0.00 75 1010.2
20180221150031 14 296 16.1 24.1 0.00 0.00 0.00 76 1010.2
20180221145945 14 343 16.1 24.1 0.00 0.00 0.00 76 1010.2
20180221145538 14 305 16.1 24.1 0.00 0.00 0.00 77 1010.2
20180221145041 14 290 14.5 24.1 0.00 0.00 0.00 77 1010.2
20180221144524 14 296 14.5 22.5 0.00 0.00 0.00 75 1010.2
20180221144226 14 319 14.5 22.5 0.00 0.00 0.00 74 1010.3
20180221144042 14 313 17.7 22.5 0.00 0.00 0.00 74 1010.3
20180221143526 15 298 12.9 22.5 0.00 0.00 0.00 72 1010.4
20180221143054 15 319 14.5 24.1 0.00 0.00 0.00 69 1010.4
20180221142520 15 323 17.7 24.1 0.00 0.00 0.00 66 1010.5
20180221142336 15 339 17.7 24.1 0.00 0.00 0.00 66 1010.6
20180221142020 15 326 16.1 24.1 0.00 0.00 0.00 65 1010.6
20180221141529 15 324 16.1 22.5 0.00 0.00 0.00 64 1010.6
20180221141020 15 360 9.7 22.5 0.00 0.00 0.00 62 1010.7
20180221140530 15 306 14.5 20.9 0.00 0.00 0.00 62 1010.8
20180221140443 15 304 14.5 20.9 0.00 0.00 0.00 63 1010.9
20180221140026 15 319 14.5 22.5 0.00 0.00 0.00 63 1010.9
20180221135533 15 331 17.7 22.5 0.00 0.00 0.00 62 1010.9
20180221135021 15 331 16.1 24.1 0.00 0.00 0.00 62 1011.0
20180221134620 15 320 16.1 24.1 0.00 0.00 0.00 62 1011.0
20180221134531 16 327 14.5 20.9 0.00 0.00 0.00 62 1011.0
20180221134033 16 314 11.3 19.3 0.00 0.00 0.00 59 1011.1
20180221133517 16 19 12.9 22.5 0.00 0.00 0.00 53 1011.2
20180221133036 17 355 11.3 22.5 0.00 0.00 0.00 54 1011.3
20180221132735 16 13 14.5 22.5 0.00 0.00 0.00 55 1011.4
20180221132527 17 355 9.7 20.9 0.00 0.00 0.00 56 1011.4
20180221132019 17 360 14.5 20.9 0.00 0.00 0.00 56 1011.5
20180221131534 17 348 11.3 19.3 0.00 0.00 0.00 54 1011.7
20180221131022 17 27 11.3 19.3 0.00 0.00 0.00 57 1011.7
20180221130844 16 34 14.5 19.3 0.00 0.00 0.00 56 1011.7
20180221130543 17 5 9.7 20.9 0.00 0.00 0.00 56 1011.8
20180221130040 16 355 14.5 27.4 0.00 0.00 0.00 55 1011.9
20180221125520 16 16 14.5 27.4 0.00 0.00 0.00 57 1011.9
20180221125041 16 10 11.3 24.1 0.00 0.00 0.00 56 1012.1
20180221125023 16 31 11.3 24.1 0.00 0.00 0.00 56 1012.1
20180221124522 16 24 16.1 24.1 0.00 0.00 0.00 57 1012.1
20180221124049 16 11 14.5 22.5 0.00 0.00 0.00 56 1012.2
20180221123524 16 20 9.7 20.9 0.00 0.00 0.00 57 1012.2
20180221123204 16 350 9.7 20.9 0.00 0.00 0.00 59 1012.3
20180221123031 16 26 11.3 20.9 0.00 0.00 0.00 59 1012.3
20180221122527 16 15 9.7 22.5 0.00 0.00 0.00 58 1012.4
20180221122030 16 24 16.1 22.5 0.00 0.00 0.00 56 1012.4
20180221121522 16 34 11.3 25.7 0.00 0.00 0.00 57 1012.5
20180221121258 16 24 12.9 25.7 0.00 0.00 0.00 56 1012.6
20180221121045 16 13 12.9 30.6 0.00 0.00 0.00 60 1012.6
20180221120520 16 51 12.9 30.6 0.00 0.00 0.00 56 1012.7
20180221120028 16 22 14.5 25.7 0.00 0.00 0.00 56 1012.8
20180221115522 16 22 16.1 27.4 0.00 0.00 0.00 58 1013.0
20180221115421 16 11 11.3 27.4 0.00 0.00 0.00 57 1013.0
20180221115033 16 46 19.3 27.4 0.00 0.00 0.00 55 1013.0
20180221114529 16 25 16.1 32.2 0.00 0.00 0.00 57 1013.2
20180221114034 16 24 22.5 32.2 0.00 0.00 0.00 54 1013.2
20180221113558 16 34 17.7 25.7 0.00 0.00 0.00 56 1013.3
20180221113526 16 17 17.7 24.1 0.00 0.00 0.00 56 1013.4
20180221113039 16 54 14.5 29.0 0.00 0.00 0.00 57 1013.4
20180221112521 15 51 14.5 29.0 0.00 0.00 0.00 56 1013.5
20180221112034 15 37 16.1 27.4 0.00 0.00 0.00 57 1013.6
20180221111733 15 63 17.7 27.4 0.00 0.00 0.00 57 1013.6
20180221111527 15 38 16.1 22.5 0.00 0.00 0.00 57 1013.6
20180221111022 15 29 12.9 37.0 0.00 0.00 0.00 60 1013.5
20180221110545 15 49 20.9 37.0 0.00 0.00 0.00 58 1013.5
20180221110037 15 62 14.5 24.1 0.00 0.00 0.00 62 1013.7
20180221105906 14 63 12.9 24.1 0.00 0.00 0.00 63 1013.7
20180221105548 15 24 12.9 20.9 0.00 0.00 0.00 62 1013.7
20180221105037 15 17 12.9 20.9 0.00 0.00 0.00 61 1013.7
20180221104525 15 65 17.7 20.9 0.00 0.00 0.00 62 1013.8
20180221104040 14 20 8.0 16.1 0.00 0.00 0.00 65 1013.8
20180221104019 14 5 8.0 16.1 0.00 0.00 0.00 65 1013.8
20180221103528 14 11 6.4 14.5 0.00 0.00 0.00 67 1013.7
20180221103037 13 44 6.4 11.3 0.00 0.00 0.00 69 1013.9
20180221102532 13 51 6.4 11.3 0.00 0.00 0.00 72 1013.8
20180221102213 13 56 3.2 11.3 0.00 0.00 0.00 72 1013.8
20180221102024 13 34 4.8 11.3 0.00 0.00 0.00 72 1013.8
20180221101531 13 23 6.4 11.3 0.00 0.00 0.00 74 1013.8
20180221101052 12 34 8.0 14.5 0.00 0.00 0.00 74 1013.9
20180221100525 12 19 9.7 14.5 0.00 0.00 0.00 77 1013.9
20180221100337 12 22 11.3 14.5 0.00 0.00 0.00 76 1013.9
20180221100040 12 23 9.7 14.5 0.00 0.00 0.00 76 1013.9
20180221095522 12 28 9.7 14.5 0.00 0.00 0.00 77 1014.0
20180221095024 12 15 8.0 12.9 0.00 0.00 0.00 77 1013.9
20180221094532 11 5 8.0 14.5 0.00 0.00 0.00 78 1014.0
20180221094435 11 17 6.4 17.7 0.00 0.00 0.00 79 1014.0
20180221094028 11 27 9.7 17.7 0.00 0.00 0.00 79 1013.9
20180221093520 11 22 11.3 16.1 0.00 0.00 0.00 79 1013.9
20180221093059 11 20 9.7 16.1 0.00 0.00 0.00 81 1014.0
20180221092543 10 21 9.7 16.1 0.00 0.00 0.00 81 1014.0
20180221092523 11 5 11.3 16.1 0.00 0.00 0.00 81 1014.0
20180221092047 10 27 9.7 14.5 0.00 0.00 0.00 82 1014.1
20180221091534 10 24 11.3 14.5 0.00 0.00 0.00 83 1014.1
20180221091034 10 26 8.0 14.5 0.00 0.00 0.00 84 1014.1
20180221090646 9 15 6.4 14.5 0.00 0.00 0.00 85 1014.2
20180221090552 10 11 6.4 14.5 0.00 0.00 0.00 85 1014.2
20180221090044 9 28 9.7 14.5 0.00 0.00 0.00 87 1014.1
20180221085552 8 17 8.0 17.7 0.00 0.00 0.00 89 1014.1
20180221085027 8 28 11.3 17.7 0.00 0.00 0.00 91 1014.0
20180221084811 7 23 8.0 16.1 0.00 0.00 0.00 91 1014.1
20180221084552 7 5 9.7 14.5 0.00 0.00 0.00 91 1014.1
20180221084028 6 28 9.7 12.9 0.00 0.00 0.00 92 1014.0
20180221083554 5 20 4.8 8.0 0.00 0.00 0.00 92 1014.1
20180221083022 5 62 1.6 4.8 0.00 0.00 0.00 91 1014.0
20180221082917 5 62 1.6 4.8 0.00 0.00 0.00 92 1014.0
20180221082531 5 62 3.2 6.4 0.00 0.00 0.00 92 1013.9
20180221082021 4 62 1.6 6.4 0.00 0.00 0.00 92 1013.9
20180221081535 5 60 4.8 6.4 0.00 0.00 0.00 92 1013.8
20180221081047 3 64 0.0 4.8 0.00 0.00 0.00 92 1013.9
20180221081021 4 64 1.6 4.8 0.00 0.00 0.00 92 1013.8
20180221080527 4 63 1.6 8.0 0.00 0.00 0.00 92 1013.7
20180221080024 4 62 6.4 9.7 0.00 0.00 0.00 93 1013.6
20180221075521 3 44 6.4 9.7 0.00 0.00 0.00 92 1013.5
20180221075216 3 45 8.0 9.7 0.00 0.00 0.00 91 1013.4
20180221075020 4 30 8.0 9.7 0.00 0.00 0.00 90 1013.3
20180221074535 5 162 1.6 4.8 0.00 0.00 0.00 91 1013.1
20180221074030 5 148 3.2 8.0 0.00 0.00 0.00 91 1013.0
20180221073525 4 36 1.6 8.0 0.00 0.00 0.00 90 1013.1
20180221073339 4 36 3.2 8.0 0.00 0.00 0.00 90 1013.1
20180221073023 5 37 1.6 8.0 0.00 0.00 0.00 90 1013.1
20180221072528 5 189 4.8 6.4 0.00 0.00 0.00 91 1013.0
20180221072037 5 136 1.6 6.4 0.00 0.00 0.00 92 1013.1
20180221071545 4 102 3.2 6.4 0.00 0.00 0.00 92 1013.0
20180221071516 4 102 1.6 6.4 0.00 0.00 0.00 92 1013.1
20180221071035 5 161 1.6 4.8 0.00 0.00 0.00 93 1013.0
20180221070547 4 153 3.2 4.8 0.00 0.00 0.00 93 1013.0
20180221070034 5 74 1.6 3.2 0.00 0.00 0.00 93 1013.0
20180221065657 4 69 0.0 3.2 0.00 0.00 0.00 93 1013.1
20180221065550 4 69 1.6 3.2 0.00 0.00 0.00 93 1013.1
20180221065029 4 69 1.6 9.7 0.00 0.00 0.00 93 1013.1
20180221064530 3 196 4.8 11.3 0.00 0.00 0.00 93 1013.0
20180221064022 3 197 9.7 11.3 0.00 0.00 0.00 93 1013.0
20180221063826 3 192 8.0 11.3 0.00 0.00 0.00 92 1013.1
20180221063535 4 190 6.4 8.0 0.00 0.00 0.00 92 1013.2
20180221063027 4 157 3.2 4.8 0.00 0.00 0.00 92 1013.2
20180221062527 4 87 1.6 12.9 0.00 0.00 0.00 91 1013.3
20180221062033 5 64 8.0 12.9 0.00 0.00 0.00 92 1013.4
20180221061955 5 66 8.0 12.9 0.00 0.00 0.00 92 1013.4
20180221061534 4 54 6.4 9.7 0.00 0.00 0.00 91 1013.3
20180221061020 4 42 1.6 4.8 0.00 0.00 0.00 91 1013.2
20180221060538 5 42 4.8 4.8 0.00 0.00 0.00 90 1013.2
20180221060156 5 185 0.0 6.4 0.00 0.00 0.00 89 1013.3
20180221060024 5 185 1.6 6.4 0.00 0.00 0.00 88 1013.3
20180221055546 6 185 3.2 6.4 0.00 0.00 0.00 89 1013.2
20180221055018 6 120 0.0 3.2 0.00 0.00 0.00 88 1013.4
20180221054539 6 120 1.6 3.2 0.00 0.00 0.00 89 1013.5
20180221054335 6 120 1.6 6.4 0.00 0.00 0.00 89 1013.5
20180221054031 6 119 1.6 6.4 0.00 0.00 0.00 89 1013.5
20180221053521 6 130 4.8 6.4 0.00 0.00 0.00 91 1013.5
20180221053023 6 163 3.2 4.8 0.00 0.00 0.00 92 1013.5
20180221052534 6 74 1.6 3.2 0.00 0.00 0.00 92 1013.6
20180221052450 6 74 0.0 3.2 0.00 0.00 0.00 92 1013.6
20180221052030 6 74 3.2 3.2 0.00 0.00 0.00 91 1013.6
20180221051538 6 74 1.6 4.8 0.00 0.00 0.00 90 1013.7
20180221051055 6 74 3.2 6.4 0.00 0.00 0.00 90 1013.7
20180221050551 6 67 1.6 6.4 0.00 0.00 0.00 91 1013.7
20180221050527 7 67 3.2 6.4 0.00 0.00 0.00 91 1013.7
20180221050023 7 98 1.6 3.2 0.00 0.00 0.00 92 1013.7
20180221045523 6 98 1.6 3.2 0.00 0.00 0.00 92 1013.7
20180221045022 6 98 1.6 8.0 0.00 0.00 0.00 91 1013.8
20180221044703 6 98 0.0 8.0 0.00 0.00 0.00 91 1013.9
20180221044525 6 97 0.0 8.0 0.00 0.00 0.00 91 1013.9
20180221044029 7 124 0.0 3.2 0.00 0.00 0.00 92 1014.0
20180221043526 7 158 1.6 1.6 0.00 0.00 0.00 92 1014.0
20180221043028 7 158 0.0 1.6 0.00 0.00 0.00 92 1014.1
20180221042849 7 158 0.0 1.6 0.00 0.00 0.00 92 1014.1
20180221042536 7 158 0.0 3.2 0.00 0.00 0.00 93 1014.0
20180221042048 7 158 1.6 3.2 0.00 0.00 0.00 93 1014.0
20180221041534 7 198 1.6 6.4 0.00 0.00 0.00 93 1014.0
20180221041021 6 198 4.8 6.4 0.00 0.00 0.00 93 1014.1
20180221041004 6 198 3.2 6.4 0.00 0.00 0.00 93 1014.1
20180221040543 6 200 3.2 4.8 0.00 0.00 0.00 92 1014.2
20180221040023 6 103 3.2 9.7 0.00 0.00 0.00 93 1014.3
20180221035542 6 80 3.2 11.3 0.00 0.00 0.00 93 1014.3
20180221035201 6 61 3.2 11.3 0.00 0.00 0.00 93 1014.4
20180221035025 6 52 1.6 8.0 0.00 0.00 0.00 94 1014.4
20180221034537 6 189 3.2 8.0 0.00 0.00 0.00 93 1014.5
20180221034030 5 191 8.0 8.0 0.00 0.00 0.00 93 1014.5
20180221033530 5 189 6.4 6.4 0.00 0.00 0.00 92 1014.6
20180221033314 5 182 1.6 6.4 0.00 0.00 0.00 92 1014.6
20180221033023 6 81 0.0 4.8 0.00 0.00 0.00 93 1014.6
20180221032534 6 81 3.2 4.8 0.00 0.00 0.00 93 1014.7
20180221032022 6 56 0.0 6.4 0.00 0.00 0.00 93 1014.7
20180221031536 6 346 0.0 6.4 0.00 0.00 0.00 92 1014.8
20180221031458 6 346 0.0 6.4 0.00 0.00 0.00 92 1014.8
20180221031023 6 113 1.6 4.8 0.00 0.00 0.00 92 1014.8
20180221030532 7 113 1.6 4.8 0.00 0.00 0.00 92 1014.8
20180221030042 7 70 0.0 4.8 0.00 0.00 0.00 93 1014.9
20180221025613 6 70 1.6 3.2 0.00 0.00 0.00 93 1014.9
20180221025529 7 70 1.6 3.2 0.00 0.00 0.00 93 1014.9
20180221025032 6 70 1.6 4.8 0.00 0.00 0.00 92 1014.9
20180221024535 7 70 1.6 4.8 0.00 0.00 0.00 90 1014.9
20180221024020 8 155 1.6 6.4 0.00 0.00 0.00 92 1015.0
20180221023715 8 154 1.6 6.4 0.00 0.00 0.00 92 1015.0
20180221023528 8 154 4.8 6.4 0.00 0.00 0.00 92 1015.0
20180221023027 8 183 4.8 6.4 0.00 0.00 0.00 92 1015.0
20180221022530 8 183 3.2 6.4 0.00 0.00 0.00 92 1015.2
20180221022053 7 180 4.8 6.4 0.00 0.00 0.00 92 1015.2
20180221021813 7 169 4.8 6.4 0.00 0.00 0.00 92 1015.4
20180221021536 7 144 3.2 4.8 0.00 0.00 0.00 92 1015.4
20180221021018 7 144 1.6 3.2 0.00 0.00 0.00 92 1015.5
20180221020526 7 144 1.6 3.2 0.00 0.00 0.00 92 1015.6
20180221020039 7 144 1.6 4.8 0.00 0.00 0.00 93 1015.6
20180221015940 7 144 1.6 4.8 0.00 0.00 0.00 92 1015.7
20180221015539 7 144 3.2 4.8 0.00 0.00 0.00 92 1015.7
20180221015041 7 144 3.2 4.8 0.00 0.00 0.00 92 1015.7
20180221014541 7 117 1.6 3.2 0.00 0.00 0.00 92 1015.7
20180221014155 7 117 0.0 3.2 0.00 0.00 0.00 92 1015.7
20180221014048 7 117 1.6 4.8 0.00 0.00 0.00 92 1015.8
20180221013534 7 117 3.2 4.8 0.00 0.00 0.00 92 1015.8
20180221013024 7 117 3.2 4.8 0.00 0.00 0.00 91 1015.8
20180221012538 7 48 1.6 1.6 0.00 0.00 0.00 91 1015.8
20180221012329 7 48 0.0 1.6 0.00 0.00 0.00 91 1015.8
20180221012030 7 48 0.0 1.6 0.00 0.00 0.00 91 1015.9
20180221011517 7 48 0.0 6.4 0.00 0.00 0.00 90 1015.9
20180221011035 7 48 1.6 6.4 0.00 0.00 0.00 91 1016.0
20180221010527 8 37 4.8 6.4 0.00 0.00 0.00 88 1016.0
20180221010443 8 37 3.2 6.4 0.00 0.00 0.00 88 1016.0
20180221010039 9 179 0.0 4.8 0.00 0.00 0.00 89 1016.0
20180221005536 9 179 3.2 4.8 0.00 0.00 0.00 89 1016.0
20180221005024 9 179 1.6 6.4 0.00 0.00 0.00 89 1016.1
20180221004609 8 179 3.2 6.4 0.00 0.00 0.00 89 1016.2
20180221004534 9 179 3.2 6.4 0.00 0.00 0.00 89 1016.2
20180221004025 8 179 4.8 6.4 0.00 0.00 0.00 89 1016.2
20180221003522 8 136 3.2 4.8 0.00 0.00 0.00 89 1016.3
20180221003023 9 56 0.0 3.2 0.00 0.00 0.00 88 1016.3
20180221002719 9 56 0.0 3.2 0.00 0.00 0.00 89 1016.4
20180221002530 10 56 0.0 4.8 0.00 0.00 0.00 89 1016.4
20180221002023 10 56 1.6 4.8 0.00 0.00 0.00 89 1016.5
20180221001532 10 56 4.8 8.0 0.00 0.00 0.00 89 1016.4
20180221001035 10 55 6.4 8.0 0.00 0.00 0.00 88 1016.4
20180221000850 10 61 4.8 8.0 0.00 0.00 0.00 88 1016.4
20180221000534 10 55 6.4 8.0 0.00 0.00 0.00 88 1016.4
20180221000104 10 67 4.8 6.4 0.00 0.00 0.00 88 1016.5
20180220235538 10 61 3.2 8.0 0.00 0.00 0.00 88 1016.5
20180220235025 10 65 4.8 8.0 0.00 0.00 0.00 87 1016.6
20180220234825 10 72 4.8 8.0 0.00 0.00 0.00 87 1016.6
20180220234538 10 86 3.2 8.0 0.00 0.00 0.00 88 1016.6
20180220234031 10 173 0.0 3.2 0.00 0.00 0.00 92 1016.6
20180220233533 10 173 1.6 3.2 0.00 0.00 0.00 88 1016.6
20180220233028 10 173 0.0 3.2 0.00 0.00 0.00 89 1016.7
20180220232943 10 173 0.0 3.2 0.00 0.00 0.00 89 1016.7
20180220232539 10 173 1.6 3.2 0.00 0.00 0.00 89 1016.7
20180220232039 10 173 1.6 4.8 0.00 0.00 0.00 89 1016.7
20180220231546 10 173 1.6 4.8 0.00 0.00 0.00 89 1016.7
20180220231138 10 173 1.6 6.4 0.00 0.00 0.00 89 1016.8
20180220231029 10 173 1.6 6.4 0.00 0.00 0.00 89 1016.8
20180220230543 10 173 3.2 6.4 0.00 0.00 0.00 89 1016.8
20180220230031 10 173 1.6 4.8 0.00 0.00 0.00 89 1016.9